| time (UTC) | temp C | wind direction | speed KPH | gust KPH | rain 1hr cm | rain 24hr cm | rain mn cm | humidity % | barometer mb |
| 20260502130525 | 12 | 168 | 0.0 | 3.2 | 0.00 | 0.23 | 0.23 | 76 | 1012.4 |
| 20260502123509 | 10 | 168 | 1.6 | 1.6 | 0.00 | 0.23 | 0.23 | 91 | 1012.5 |
| 20260502123005 | 9 | 163 | 3.2 | 4.8 | 0.00 | 0.23 | 0.23 | 91 | 1012.7 |
| 20260502122501 | 9 | 208 | 0.0 | 3.2 | 0.00 | 0.23 | 0.23 | 92 | 1012.7 |
| 20260502121959 | 9 | 203 | 0.0 | 3.2 | 0.00 | 0.23 | 0.23 | 92 | 1012.8 |
| 20260502121456 | 9 | 197 | 0.0 | 1.6 | 0.00 | 0.23 | 0.23 | 92 | 1012.9 |
| 20260502120954 | 8 | 171 | 1.6 | 3.2 | 0.00 | 0.23 | 0.23 | 92 | 1012.7 |
| 20260502120450 | 8 | 169 | 1.6 | 1.6 | 0.00 | 0.23 | 0.23 | 93 | 1012.8 |
| 20260502115444 | 8 | 315 | 0.0 | 0.0 | 0.00 | 0.23 | 0.23 | 93 | 1012.7 |
| 20260502114940 | 8 | 347 | 0.0 | 0.0 | 0.00 | 0.23 | 0.23 | 93 | 1012.6 |
| 20260502114437 | 8 | 288 | 0.0 | 0.0 | 0.00 | 0.23 | 0.23 | 93 | 1012.6 |
| 20260502113935 | 8 | 236 | 0.0 | 0.0 | 0.00 | 0.23 | 0.23 | 93 | 1012.7 |
| 20260502113432 | 8 | 256 | 0.0 | 0.0 | 0.00 | 0.23 | 0.23 | 93 | 1012.7 |
| 20260502112931 | 8 | 331 | 0.0 | 0.0 | 0.00 | 0.23 | 0.23 | 93 | 1012.7 |
| 20260502112428 | 8 | 336 | 0.0 | 0.0 | 0.18 | 0.23 | 0.23 | 93 | 1012.8 |
| 20260502111925 | 8 | 295 | 0.0 | 0.0 | 0.00 | 0.20 | 0.20 | 93 | 1013.1 |
| 20260502111422 | 8 | 297 | 0.0 | 0.0 | 0.18 | 0.20 | 0.20 | 93 | 1013.1 |
| 20260502110919 | 8 | 248 | 0.0 | 0.0 | 0.61 | 0.20 | 0.20 | 93 | 1013.1 |
| 20260502110417 | 8 | 203 | 0.0 | 0.0 | 0.48 | 0.15 | 0.15 | 92 | 1013.2 |
| 20260502105914 | 8 | 175 | 0.0 | 0.0 | 0.18 | 0.10 | 0.10 | 92 | 1013.1 |
| 20260502105411 | 8 | 317 | 0.0 | 1.6 | 0.00 | 0.08 | 0.08 | 92 | 1013.3 |
| 20260502104909 | 8 | 329 | 0.0 | 1.6 | 0.00 | 0.08 | 0.08 | 92 | 1012.8 |
| 20260502104406 | 8 | 342 | 3.2 | 4.8 | 0.00 | 0.08 | 0.08 | 92 | 1012.8 |
| 20260502103903 | 8 | 307 | 3.2 | 4.8 | 0.00 | 0.08 | 0.08 | 92 | 1012.6 |
| 20260502103401 | 8 | 347 | 0.0 | 1.6 | 0.00 | 0.08 | 0.08 | 92 | 1012.3 |
| 20260502102858 | 8 | 313 | 0.0 | 0.0 | 0.00 | 0.08 | 0.08 | 92 | 1012.3 |
| 20260502102354 | 8 | 306 | 0.0 | 0.0 | 0.00 | 0.08 | 0.08 | 92 | 1012.2 |
| 20260502101852 | 8 | 308 | 0.0 | 0.0 | 0.13 | 0.08 | 0.08 | 92 | 1012.6 |
| 20260502101350 | 8 | 11 | 0.0 | 1.6 | 0.13 | 0.08 | 0.08 | 92 | 1012.5 |
| 20260502100848 | 8 | 325 | 1.6 | 1.6 | 0.18 | 0.05 | 0.05 | 92 | 1012.7 |
| 20260502100347 | 8 | 348 | 1.6 | 1.6 | 0.00 | 0.03 | 0.03 | 92 | 1012.8 |
| 20260502091321 | 8 | 311 | 0.0 | 0.0 | 0.13 | 0.03 | 0.03 | 91 | 1012.3 |
| 20260502090819 | 8 | 310 | 0.0 | 0.0 | 0.00 | 0.00 | 0.00 | 91 | 1012.0 |
| 20260502090315 | 8 | 357 | 0.0 | 0.0 | 0.00 | 0.00 | 0.00 | 91 | 1011.9 |
| 20260502071210 | 10 | 23 | 0.0 | 0.0 | 0.00 | 0.00 | 0.00 | 79 | 1011.8 |
| 20260502070709 | 10 | 28 | 0.0 | 0.0 | 0.00 | 0.00 | 0.00 | 78 | 1012.0 |
| 20260502070206 | 10 | 47 | 0.0 | 0.0 | 0.00 | 0.00 | 0.00 | 78 | 1012.2 |
| 20260502065704 | 10 | 216 | 1.6 | 1.6 | 0.00 | 0.00 | 0.00 | 79 | 1012.1 |
| 20260502065201 | 10 | 23 | 0.0 | 0.0 | 0.00 | 0.00 | 0.00 | 76 | 1011.8 |
| 20260502064700 | 10 | 15 | 1.6 | 1.6 | 0.00 | 0.00 | 0.00 | 75 | 1011.7 |
| 20260502064156 | 10 | 338 | 0.0 | 1.6 | 0.00 | 0.00 | 0.00 | 78 | 1012.0 |
| 20260502063655 | 10 | 308 | 0.0 | 0.0 | 0.00 | 0.00 | 0.00 | 76 | 1012.0 |
| 20260502063152 | 10 | 213 | 1.6 | 1.6 | 0.00 | 0.00 | 0.00 | 75 | 1012.0 |
| 20260502062649 | 10 | 173 | 0.0 | 0.0 | 0.00 | 0.00 | 0.00 | 75 | 1011.8 |
| 20260502062147 | 10 | 154 | 0.0 | 1.6 | 0.00 | 0.00 | 0.00 | 74 | 1011.9 |
| 20260502061645 | 10 | 204 | 0.0 | 0.0 | 0.00 | 0.00 | 0.00 | 77 | 1011.8 |
| 20260502061142 | 10 | 267 | 0.0 | 0.0 | 0.00 | 0.00 | 0.00 | 81 | 1012.2 |
| 20260502060642 | 10 | 271 | 0.0 | 0.0 | 0.00 | 0.00 | 0.00 | 81 | 1012.1 |
| 20260502060139 | 10 | 265 | 0.0 | 0.0 | 0.00 | 0.00 | 0.00 | 81 | 1012.0 |
| 20260502055637 | 10 | 245 | 0.0 | 0.0 | 0.00 | 0.00 | 0.00 | 82 | 1012.2 |
| 20260502055135 | 10 | 245 | 0.0 | 0.0 | 0.00 | 0.00 | 0.00 | 80 | 1012.0 |
| 20260502054634 | 10 | 243 | 0.0 | 0.0 | 0.00 | 0.00 | 0.00 | 79 | 1012.0 |
| 20260502054130 | 10 | 297 | 0.0 | 0.0 | 0.00 | 0.00 | 0.00 | 78 | 1012.0 |
| 20260502053628 | 10 | 294 | 0.0 | 0.0 | 0.00 | 0.00 | 0.00 | 78 | 1012.2 |
| 20260502053125 | 10 | 281 | 0.0 | 0.0 | 0.00 | 0.00 | 0.00 | 78 | 1012.1 |
| 20260502052623 | 10 | 281 | 0.0 | 0.0 | 0.00 | 0.00 | 0.00 | 77 | 1012.3 |
| 20260502052121 | 10 | 281 | 0.0 | 0.0 | 0.00 | 0.00 | 0.00 | 76 | 1012.1 |
| 20260502051619 | 10 | 265 | 0.0 | 0.0 | 0.00 | 0.00 | 0.00 | 76 | 1012.2 |
| 20260502051117 | 10 | 307 | 0.0 | 0.0 | 0.00 | 0.00 | 0.00 | 76 | 1012.1 |
| 20260502050613 | 10 | 305 | 0.0 | 0.0 | 0.00 | 0.00 | 0.00 | 75 | 1012.3 |
| 20260502050109 | 11 | 192 | 0.0 | 0.0 | 0.00 | 0.00 | 0.00 | 73 | 1012.2 |
| 20260502045606 | 11 | 251 | 0.0 | 0.0 | 0.00 | 0.00 | 0.00 | 71 | 1012.3 |
| 20260502045103 | 11 | 212 | 0.0 | 1.6 | 0.00 | 0.00 | 0.00 | 70 | 1012.3 |
| 20260502044559 | 11 | 211 | 0.0 | 1.6 | 0.00 | 0.00 | 0.00 | 70 | 1012.2 |
| 20260502044056 | 11 | 185 | 0.0 | 1.6 | 0.00 | 0.00 | 0.00 | 70 | 1012.1 |
| 20260502043554 | 11 | 176 | 0.0 | 1.6 | 0.00 | 0.00 | 0.00 | 70 | 1012.3 |
| 20260502043051 | 11 | 215 | 0.0 | 0.0 | 0.00 | 0.00 | 0.00 | 71 | 1012.1 |
| 20260502042551 | 11 | 199 | 0.0 | 1.6 | 0.00 | 0.00 | 0.00 | 70 | 1012.0 |
| 20260502042049 | 11 | 166 | 0.0 | 1.6 | 0.00 | 0.00 | 0.00 | 70 | 1012.1 |
| 20260502041546 | 11 | 220 | 1.6 | 1.6 | 0.00 | 0.00 | 0.00 | 70 | 1012.1 |
| 20260502041043 | 11 | 281 | 0.0 | 0.0 | 0.00 | 0.00 | 0.00 | 70 | 1012.1 |
| 20260502040539 | 11 | 239 | 0.0 | 0.0 | 0.00 | 0.00 | 0.00 | 69 | 1012.1 |
| 20260502040037 | 11 | 231 | 0.0 | 1.6 | 0.00 | 0.00 | 0.00 | 70 | 1012.0 |
| 20260502035532 | 11 | 169 | 1.6 | 1.6 | 0.00 | 0.00 | 0.00 | 68 | 1012.0 |
| 20260502035030 | 11 | 156 | 0.0 | 1.6 | 0.00 | 0.00 | 0.00 | 68 | 1012.1 |
| 20260502034528 | 11 | 224 | 0.0 | 0.0 | 0.00 | 0.00 | 0.00 | 67 | 1012.1 |
| 20260502034026 | 11 | 316 | 0.0 | 0.0 | 0.00 | 0.00 | 0.00 | 68 | 1012.1 |
| 20260502033524 | 11 | 317 | 0.0 | 0.0 | 0.00 | 0.00 | 0.00 | 68 | 1012.1 |
| 20260502033021 | 11 | 198 | 0.0 | 0.0 | 0.00 | 0.00 | 0.00 | 68 | 1012.2 |
| 20260502032517 | 11 | 196 | 0.0 | 1.6 | 0.00 | 0.00 | 0.00 | 69 | 1012.3 |
| 20260502032014 | 11 | 252 | 0.0 | 0.0 | 0.00 | 0.00 | 0.00 | 71 | 1012.2 |
| 20260502031512 | 11 | 244 | 0.0 | 0.0 | 0.00 | 0.00 | 0.00 | 68 | 1012.3 |
| 20260502031010 | 11 | 280 | 0.0 | 0.0 | 0.00 | 0.00 | 0.00 | 68 | 1012.3 |
| 20260502030508 | 11 | 174 | 0.0 | 0.0 | 0.00 | 0.00 | 0.00 | 64 | 1012.2 |
| 20260502030006 | 11 | 173 | 0.0 | 1.6 | 0.00 | 0.00 | 0.00 | 64 | 1012.3 |
| 20260502025503 | 11 | 209 | 0.0 | 0.0 | 0.00 | 0.00 | 0.00 | 64 | 1012.3 |
| 20260502025000 | 11 | 188 | 0.0 | 0.0 | 0.00 | 0.00 | 0.00 | 64 | 1012.2 |
| 20260502024458 | 11 | 190 | 0.0 | 0.0 | 0.00 | 0.00 | 0.00 | 65 | 1012.2 |
| 20260502023956 | 12 | 176 | 0.0 | 0.0 | 0.00 | 0.00 | 0.00 | 62 | 1012.3 |
| 20260502023453 | 12 | 173 | 0.0 | 0.0 | 0.00 | 0.00 | 0.00 | 62 | 1012.3 |
| 20260502022951 | 12 | 137 | 0.0 | 1.6 | 0.00 | 0.00 | 0.00 | 61 | 1012.2 |
| 20260502022447 | 12 | 183 | 0.0 | 1.6 | 0.00 | 0.00 | 0.00 | 61 | 1012.2 |
| 20260502021944 | 12 | 177 | 1.6 | 1.6 | 0.00 | 0.00 | 0.00 | 60 | 1012.2 |
| 20260502021442 | 12 | 202 | 0.0 | 1.6 | 0.00 | 0.00 | 0.00 | 61 | 1012.2 |
| 20260502020938 | 12 | 209 | 0.0 | 3.2 | 0.00 | 0.00 | 0.00 | 60 | 1012.3 |
| 20260502020436 | 12 | 214 | 0.0 | 3.2 | 0.00 | 0.00 | 0.00 | 58 | 1012.4 |
| 20260502015933 | 12 | 197 | 1.6 | 3.2 | 0.00 | 0.00 | 0.00 | 58 | 1012.3 |
| 20260502015431 | 12 | 202 | 3.2 | 3.2 | 0.00 | 0.00 | 0.00 | 57 | 1012.2 |
| 20260502014927 | 13 | 170 | 1.6 | 3.2 | 0.00 | 0.00 | 0.00 | 56 | 1012.3 |
| 20260502014424 | 13 | 177 | 0.0 | 3.2 | 0.00 | 0.00 | 0.00 | 55 | 1012.1 |
| 20260502013920 | 13 | 192 | 1.6 | 4.8 | 0.00 | 0.00 | 0.00 | 52 | 1012.0 |
| 20260502013416 | 13 | 176 | 1.6 | 3.2 | 0.00 | 0.00 | 0.00 | 51 | 1012.1 |
| 20260502012913 | 13 | 211 | 3.2 | 4.8 | 0.00 | 0.00 | 0.00 | 52 | 1012.0 |
| 20260502012411 | 13 | 185 | 3.2 | 3.2 | 0.00 | 0.00 | 0.00 | 49 | 1011.8 |
| 20260502011908 | 13 | 209 | 1.6 | 1.6 | 0.00 | 0.00 | 0.00 | 47 | 1011.9 |
| 20260502011404 | 13 | 119 | 0.0 | 3.2 | 0.00 | 0.00 | 0.00 | 48 | 1011.8 |
| 20260502010901 | 13 | 223 | 0.0 | 1.6 | 0.00 | 0.00 | 0.00 | 51 | 1011.7 |
| 20260502010357 | 13 | 137 | 0.0 | 1.6 | 0.00 | 0.00 | 0.00 | 49 | 1011.7 |
| 20260502005854 | 13 | 200 | 0.0 | 1.6 | 0.00 | 0.00 | 0.00 | 50 | 1011.6 |
| 20260502005352 | 13 | 217 | 0.0 | 0.0 | 0.00 | 0.00 | 0.00 | 48 | 1011.6 |
| 20260502004849 | 13 | 210 | 0.0 | 1.6 | 0.00 | 0.00 | 0.00 | 48 | 1011.5 |
| 20260502004345 | 13 | 172 | 0.0 | 1.6 | 0.00 | 0.00 | 0.00 | 48 | 1011.4 |
| 20260502003843 | 13 | 209 | 3.2 | 6.4 | 0.00 | 0.00 | 0.00 | 50 | 1011.3 |
| 20260502003340 | 12 | 240 | 0.0 | 1.6 | 0.00 | 0.00 | 0.00 | 57 | 1011.5 |
| 20260502002836 | 12 | 254 | 0.0 | 0.0 | 0.00 | 0.00 | 0.00 | 55 | 1011.3 |
| 20260502002334 | 13 | 283 | 0.0 | 0.0 | 0.00 | 0.00 | 0.00 | 55 | 1011.0 |
| 20260502001831 | 13 | 284 | 0.0 | 0.0 | 0.00 | 0.00 | 0.00 | 52 | 1011.1 |
| 20260502001328 | 13 | 284 | 0.0 | 0.0 | 0.00 | 0.00 | 0.00 | 50 | 1010.9 |
| 20260502000826 | 13 | 284 | 0.0 | 0.0 | 0.00 | 0.00 | 0.00 | 50 | 1010.8 |
| 20260502000325 | 13 | 279 | 0.0 | 0.0 | 0.00 | 0.00 | 0.00 | 51 | 1010.8 |
| 20260501235820 | 13 | 272 | 0.0 | 0.0 | 0.00 | 0.00 | 0.00 | 48 | 1010.8 |
| 20260501235315 | 13 | 272 | 0.0 | 0.0 | 0.00 | 0.00 | 0.00 | 44 | 1010.8 |
| 20260501234811 | 13 | 271 | 0.0 | 0.0 | 0.00 | 0.00 | 0.00 | 45 | 1010.7 |
| 20260501234308 | 13 | 264 | 0.0 | 0.0 | 0.00 | 0.00 | 0.00 | 41 | 1010.7 |
| 20260501233807 | 14 | 250 | 0.0 | 0.0 | 0.00 | 0.00 | 0.00 | 50 | 1010.5 |
| 20260501233304 | 14 | 309 | 0.0 | 0.0 | 0.00 | 0.00 | 0.00 | 40 | 1010.5 |
| 20260501232759 | 15 | 309 | 0.0 | 0.0 | 0.00 | 0.00 | 0.00 | 38 | 1010.5 |
| 20260501232256 | 15 | 309 | 0.0 | 0.0 | 0.00 | 0.00 | 0.00 | 39 | 1010.3 |
| 20260501231754 | 15 | 309 | 0.0 | 0.0 | 0.00 | 0.00 | 0.00 | 38 | 1010.3 |
| 20260501231252 | 15 | 317 | 0.0 | 1.6 | 0.00 | 0.00 | 0.00 | 37 | 1010.3 |
| 20260501230750 | 15 | 167 | 1.6 | 1.6 | 0.00 | 0.00 | 0.00 | 36 | 1010.1 |
| 20260501230249 | 16 | 227 | 0.0 | 0.0 | 0.00 | 0.00 | 0.00 | 35 | 1010.3 |
| 20260501225746 | 15 | 223 | 0.0 | 1.6 | 0.00 | 0.00 | 0.00 | 34 | 1010.1 |
| 20260501225243 | 15 | 301 | 0.0 | 0.0 | 0.00 | 0.00 | 0.00 | 41 | 1010.2 |
| 20260501224739 | 16 | 343 | 1.6 | 6.4 | 0.00 | 0.00 | 0.00 | 36 | 1010.3 |
| 20260501224237 | 16 | 329 | 0.0 | 4.8 | 0.00 | 0.00 | 0.00 | 36 | 1010.1 |
| 20260501223732 | 16 | 287 | 0.0 | 1.6 | 0.00 | 0.00 | 0.00 | 37 | 1009.9 |
| 20260501223229 | 16 | 195 | 0.0 | 1.6 | 0.00 | 0.00 | 0.00 | 38 | 1009.9 |
| 20260501222725 | 16 | 174 | 1.6 | 3.2 | 0.00 | 0.00 | 0.00 | 34 | 1010.0 |
| 20260501222223 | 16 | 247 | 0.0 | 0.0 | 0.00 | 0.00 | 0.00 | 40 | 1010.0 |
| 20260501221719 | 16 | 314 | 1.6 | 1.6 | 0.00 | 0.00 | 0.00 | 37 | 1009.8 |
| 20260501221216 | 17 | 344 | 1.6 | 3.2 | 0.00 | 0.00 | 0.00 | 34 | 1010.1 |
| 20260501220714 | 17 | 213 | 3.2 | 3.2 | 0.00 | 0.00 | 0.00 | 32 | 1010.0 |
| 20260501220211 | 17 | 198 | 3.2 | 4.8 | 0.00 | 0.00 | 0.00 | 33 | 1010.1 |
| 20260501215708 | 17 | 304 | 0.0 | 0.0 | 0.00 | 0.00 | 0.00 | 33 | 1010.0 |
| 20260501215203 | 17 | 299 | 6.4 | 12.9 | 0.00 | 0.00 | 0.00 | 32 | 1010.0 |
| 20260501214658 | 17 | 359 | 3.2 | 6.4 | 0.00 | 0.00 | 0.00 | 31 | 1010.0 |
| 20260501214154 | 17 | 72 | 3.2 | 4.8 | 0.00 | 0.00 | 0.00 | 33 | 1010.1 |
| 20260501213651 | 17 | 316 | 0.0 | 4.8 | 0.00 | 0.00 | 0.00 | 32 | 1010.0 |
| 20260501213147 | 17 | 348 | 1.6 | 3.2 | 0.00 | 0.00 | 0.00 | 36 | 1010.1 |
| 20260501212644 | 18 | 306 | 1.6 | 11.3 | 0.00 | 0.00 | 0.00 | 32 | 1010.2 |
| 20260501212141 | 19 | 278 | 1.6 | 1.6 | 0.00 | 0.00 | 0.00 | 32 | 1010.1 |
| 20260501211637 | 20 | 285 | 4.8 | 6.4 | 0.00 | 0.00 | 0.00 | 29 | 1010.1 |
| 20260501211135 | 18 | 297 | 3.2 | 6.4 | 0.00 | 0.00 | 0.00 | 31 | 1010.0 |
| 20260501210631 | 18 | 306 | 1.6 | 3.2 | 0.00 | 0.00 | 0.00 | 35 | 1010.0 |
| 20260501210128 | 17 | 315 | 0.0 | 1.6 | 0.00 | 0.00 | 0.00 | 35 | 1010.0 |
| 20260501205625 | 18 | 226 | 3.2 | 4.8 | 0.00 | 0.00 | 0.00 | 35 | 1010.1 |
| 20260501205122 | 19 | 143 | 1.6 | 6.4 | 0.00 | 0.00 | 0.00 | 31 | 1010.0 |
| 20260501204619 | 18 | 336 | 3.2 | 4.8 | 0.00 | 0.00 | 0.00 | 30 | 1010.1 |
| 20260501204115 | 18 | 324 | 3.2 | 6.4 | 0.00 | 0.00 | 0.00 | 31 | 1009.9 |
| 20260501203612 | 18 | 48 | 11.3 | 14.5 | 0.00 | 0.00 | 0.00 | 29 | 1010.1 |
| 20260501203109 | 20 | 317 | 3.2 | 6.4 | 0.00 | 0.00 | 0.00 | 37 | 1009.9 |
| 20260501202606 | 20 | 307 | 1.6 | 6.4 | 0.00 | 0.00 | 0.00 | 31 | 1009.9 |
| 20260501202103 | 18 | 206 | 3.2 | 3.2 | 0.00 | 0.00 | 0.00 | 34 | 1010.0 |
| 20260501201600 | 18 | 136 | 3.2 | 4.8 | 0.00 | 0.00 | 0.00 | 37 | 1009.9 |
| 20260501201056 | 19 | 205 | 0.0 | 3.2 | 0.00 | 0.00 | 0.00 | 31 | 1009.9 |
| 20260501200553 | 18 | 301 | 1.6 | 6.4 | 0.00 | 0.00 | 0.00 | 34 | 1010.0 |
| 20260501200051 | 17 | 350 | 3.2 | 4.8 | 0.00 | 0.00 | 0.00 | 34 | 1010.1 |
| 20260501195548 | 18 | 9 | 3.2 | 4.8 | 0.00 | 0.00 | 0.00 | 33 | 1010.0 |
| 20260501195043 | 20 | 294 | 3.2 | 9.7 | 0.00 | 0.00 | 0.00 | 31 | 1010.0 |
| 20260501194539 | 20 | 130 | 0.0 | 4.8 | 0.00 | 0.00 | 0.00 | 34 | 1009.9 |
| 20260501194035 | 18 | 336 | 3.2 | 3.2 | 0.00 | 0.00 | 0.00 | 36 | 1010.0 |
| 20260501193533 | 19 | 2 | 1.6 | 6.4 | 0.00 | 0.00 | 0.00 | 31 | 1010.0 |
| 20260501193031 | 18 | 178 | 1.6 | 1.6 | 0.00 | 0.00 | 0.00 | 33 | 1010.1 |
| 20260501192527 | 17 | 293 | 1.6 | 4.8 | 0.00 | 0.00 | 0.00 | 33 | 1010.3 |
| 20260501192026 | 17 | 350 | 3.2 | 6.4 | 0.00 | 0.00 | 0.00 | 32 | 1010.4 |
| 20260501191522 | 18 | 358 | 3.2 | 4.8 | 0.00 | 0.00 | 0.00 | 34 | 1010.4 |
| 20260501191020 | 18 | 323 | 9.7 | 12.9 | 0.00 | 0.00 | 0.00 | 30 | 1010.3 |
| 20260501190515 | 18 | 135 | 1.6 | 6.4 | 0.00 | 0.00 | 0.00 | 33 | 1010.6 |
| 20260501190011 | 18 | 343 | 11.3 | 12.9 | 0.00 | 0.00 | 0.00 | 31 | 1010.6 |
| 20260501185507 | 18 | 288 | 0.0 | 6.4 | 0.00 | 0.00 | 0.00 | 37 | 1010.7 |
| 20260501185003 | 18 | 24 | 3.2 | 3.2 | 0.00 | 0.00 | 0.00 | 34 | 1010.7 |
| 20260501184459 | 18 | 348 | 4.8 | 6.4 | 0.00 | 0.00 | 0.00 | 31 | 1010.7 |
| 20260501183954 | 17 | 319 | 3.2 | 11.3 | 0.00 | 0.00 | 0.00 | 37 | 1010.8 |
| 20260501183451 | 17 | 266 | 0.0 | 14.5 | 0.00 | 0.00 | 0.00 | 37 | 1010.6 |
| 20260501182948 | 17 | 326 | 4.8 | 6.4 | 0.00 | 0.00 | 0.00 | 36 | 1010.7 |
| 20260501182445 | 17 | 139 | 1.6 | 9.7 | 0.00 | 0.00 | 0.00 | 35 | 1010.6 |
| 20260501181941 | 16 | 91 | 0.0 | 9.7 | 0.00 | 0.00 | 0.00 | 37 | 1010.9 |
| 20260501181439 | 17 | 20 | 3.2 | 9.7 | 0.00 | 0.00 | 0.00 | 31 | 1010.8 |
| 20260501180936 | 16 | 316 | 3.2 | 4.8 | 0.00 | 0.00 | 0.00 | 36 | 1010.7 |
| 20260501180433 | 16 | 28 | 4.8 | 6.4 | 0.00 | 0.00 | 0.00 | 33 | 1010.8 |
| 20260501175929 | 17 | 32 | 1.6 | 3.2 | 0.00 | 0.00 | 0.00 | 31 | 1010.9 |
| 20260501175426 | 18 | 308 | 4.8 | 9.7 | 0.00 | 0.00 | 0.00 | 34 | 1011.0 |
| 20260501174922 | 18 | 188 | 3.2 | 3.2 | 0.00 | 0.00 | 0.00 | 31 | 1011.0 |
| 20260501174420 | 17 | 321 | 3.2 | 6.4 | 0.00 | 0.00 | 0.00 | 31 | 1010.9 |
| 20260501173918 | 16 | 347 | 6.4 | 17.7 | 0.00 | 0.00 | 0.00 | 35 | 1011.0 |
| 20260501173415 | 16 | 272 | 4.8 | 9.7 | 0.00 | 0.00 | 0.00 | 33 | 1010.8 |
| 20260501172910 | 16 | 346 | 3.2 | 9.7 | 0.00 | 0.00 | 0.00 | 31 | 1010.7 |
| 20260501172406 | 17 | 353 | 3.2 | 9.7 | 0.00 | 0.00 | 0.00 | 36 | 1010.8 |
| 20260501171901 | 17 | 118 | 3.2 | 4.8 | 0.00 | 0.00 | 0.00 | 32 | 1011.0 |
| 20260501171358 | 16 | 127 | 3.2 | 14.5 | 0.00 | 0.00 | 0.00 | 33 | 1011.2 |
| 20260501170855 | 16 | 336 | 4.8 | 12.9 | 0.00 | 0.00 | 0.00 | 32 | 1011.0 |
| 20260501170352 | 16 | 193 | 3.2 | 9.7 | 0.00 | 0.00 | 0.00 | 38 | 1010.9 |
| 20260501165850 | 16 | 19 | 4.8 | 12.9 | 0.00 | 0.00 | 0.00 | 34 | 1011.1 |
| 20260501165347 | 16 | 339 | 3.2 | 3.2 | 0.00 | 0.00 | 0.00 | 42 | 1011.2 |
| 20260501164845 | 16 | 326 | 3.2 | 3.2 | 0.00 | 0.00 | 0.00 | 38 | 1011.1 |
| 20260501164343 | 16 | 345 | 3.2 | 11.3 | 0.00 | 0.00 | 0.00 | 37 | 1011.2 |
| 20260501163838 | 16 | 21 | 3.2 | 4.8 | 0.00 | 0.00 | 0.00 | 40 | 1011.1 |
| 20260501163335 | 16 | 325 | 3.2 | 6.4 | 0.00 | 0.00 | 0.00 | 44 | 1011.1 |
| 20260501162832 | 15 | 340 | 3.2 | 4.8 | 0.00 | 0.00 | 0.00 | 44 | 1011.4 |
| 20260501162329 | 15 | 22 | 1.6 | 3.2 | 0.00 | 0.00 | 0.00 | 42 | 1011.4 |
| 20260501161825 | 15 | 15 | 3.2 | 9.7 | 0.00 | 0.00 | 0.00 | 37 | 1011.4 |
| 20260501161322 | 15 | 348 | 3.2 | 6.4 | 0.00 | 0.00 | 0.00 | 41 | 1011.5 |
| 20260501160819 | 15 | 326 | 9.7 | 12.9 | 0.00 | 0.00 | 0.00 | 40 | 1011.4 |
| 20260501160315 | 15 | 10 | 6.4 | 9.7 | 0.00 | 0.00 | 0.00 | 41 | 1011.4 |
| 20260501155813 | 15 | 311 | 1.6 | 9.7 | 0.00 | 0.00 | 0.00 | 42 | 1011.5 |
| 20260501155310 | 15 | 300 | 3.2 | 6.4 | 0.00 | 0.00 | 0.00 | 42 | 1011.6 |
| 20260501154806 | 15 | 148 | 3.2 | 4.8 | 0.00 | 0.00 | 0.00 | 42 | 1011.7 |
| 20260501154304 | 14 | 331 | 3.2 | 4.8 | 0.00 | 0.00 | 0.00 | 46 | 1011.8 |
| 20260501153801 | 13 | 193 | 3.2 | 4.8 | 0.00 | 0.00 | 0.00 | 46 | 1011.5 |
| 20260501153258 | 14 | 13 | 4.8 | 12.9 | 0.00 | 0.00 | 0.00 | 42 | 1011.7 |
| 20260501152754 | 13 | 285 | 3.2 | 6.4 | 0.00 | 0.00 | 0.00 | 46 | 1011.8 |
| 20260501152252 | 13 | 10 | 1.6 | 9.7 | 0.00 | 0.00 | 0.00 | 45 | 1011.7 |
| 20260501151749 | 13 | 30 | 1.6 | 4.8 | 0.00 | 0.00 | 0.00 | 46 | 1012.0 |
| 20260501151244 | 13 | 340 | 3.2 | 4.8 | 0.00 | 0.00 | 0.00 | 48 | 1012.0 |
| 20260501150741 | 13 | 15 | 4.8 | 4.8 | 0.00 | 0.00 | 0.00 | 46 | 1011.9 |
| 20260501150238 | 13 | 292 | 1.6 | 6.4 | 0.00 | 0.00 | 0.00 | 52 | 1012.0 |
| 20260501145734 | 13 | 349 | 3.2 | 6.4 | 0.00 | 0.00 | 0.00 | 50 | 1011.9 |
| 20260501145232 | 12 | 342 | 1.6 | 9.7 | 0.00 | 0.00 | 0.00 | 47 | 1012.0 |
| 20260501144728 | 12 | 359 | 6.4 | 6.4 | 0.00 | 0.00 | 0.00 | 50 | 1012.2 |
| 20260501144224 | 12 | 319 | 3.2 | 11.3 | 0.00 | 0.00 | 0.00 | 50 | 1012.1 |
| 20260501143720 | 11 | 295 | 0.0 | 3.2 | 0.00 | 0.00 | 0.00 | 54 | 1012.1 |
| 20260501143218 | 11 | 312 | 0.0 | 3.2 | 0.00 | 0.00 | 0.00 | 51 | 1012.0 |
| 20260501142714 | 12 | 335 | 3.2 | 4.8 | 0.00 | 0.00 | 0.00 | 53 | 1012.1 |
| 20260501142210 | 12 | 316 | 0.0 | 3.2 | 0.00 | 0.00 | 0.00 | 51 | 1012.0 |
| 20260501141706 | 12 | 23 | 3.2 | 6.4 | 0.00 | 0.00 | 0.00 | 52 | 1012.2 |
| 20260501141203 | 12 | 354 | 3.2 | 6.4 | 0.00 | 0.00 | 0.00 | 52 | 1012.3 |
| 20260501140700 | 12 | 8 | 6.4 | 6.4 | 0.00 | 0.00 | 0.00 | 51 | 1012.2 |
| 20260501140157 | 12 | 9 | 1.6 | 4.8 | 0.00 | 0.00 | 0.00 | 52 | 1012.1 |